Flag for Germany Weather past 2 weeks in Waren (Müritz), Mecklenburg-Western Pomerania, Germany

Now
50 °F

Light rain. Passing clouds.


Feels Like: 43 °F
Forecast: 47 / 49 °F
Wind: 24 mph from West

Location: Laage

Current Time: Dec 22, 2014 at 6:16:57 PM

Latest Report: Dec 22, 2014 at 5:20 PM


Visibility: N/A

Pressure: 29.65 "Hg

Humidity: 94%

Dew point: 48 °F

Location of Waren (Müritz)Location

Historic Weather in Waren (Müritz) — Graph

°F

Waren (Müritz) temperature yesterday

Maximum temperature yesterday: 45 °F (at 11:20 PM)
Minimum temperature yesterday: 39 °F (at 7:20 AM)
Average temperature yesterday: 42 °F

Past Weeks' High & Low Weather Summary

 TemperatureHumidityPressure
High52 °F (Dec 18, 2:20 PM)100% (Dec 8, 12:20 AM)30.30 "Hg (Dec 8, 12:20 AM)
Low32 °F (Dec 14, 9:20 PM)70% (Dec 10, 7:20 AM)29.18 "Hg (Dec 12, 3:20 PM)
Average40 °F89%29.77 "Hg
* Reported Dec 7 4:20 PM — Dec 22 4:20 PM, Waren (Müritz), Weather by CustomWeather, © 2014

Note: Actual official high and low records may vary slightly from our data, if they occured in-between our weather recording intervals... More about our weather records

Advertising

Waren (Müritz) weather history for previous 24 hours

 ConditionsComfort  
Time TempWeatherWind HumidityBarometerVisibility
4:20 PM
Dec 22
50 °FLight rain. Passing clouds.24 mph94%29.65 "HgN/A
3:20 PM52 °FDrizzle. Partly sunny.25 mph88%29.62 "Hg4 mi
2:54 PM52 °FLight rain. Broken clouds.29 mph94%29.62 "Hg6 mi
2:20 PM52 °FLight rain. Broken clouds.26 mph94%29.59 "Hg5 mi
1:20 PM52 °FRain. Fog.22 mph94%29.59 "Hg3 mi
12:20 PM50 °FRain. Fog.17 mph94%29.62 "Hg3 mi
11:20 AM50 °FRain. Fog.20 mph94%29.62 "Hg2 mi
11:03 AM50 °FRain. Fog.17 mph94%29.62 "Hg2 mi
10:20 AM50 °FDrizzle. Fog.14 mph94%29.62 "Hg1 mi
9:20 AM50 °FDrizzle. Fog.16 mph94%29.65 "Hg2 mi
9:00 AM50 °FDrizzle. Fog.14 mph94%29.65 "Hg2 mi
8:20 AM48 °FCool.13 mph100%29.68 "Hg1 mi
7:20 AM48 °FCool.15 mph100%29.68 "Hg2 mi
6:20 AM48 °FCool.17 mph94%29.68 "Hg2 mi
5:20 AM48 °FCool.20 mph94%29.68 "Hg1 mi
4:20 AM46 °FCool.18 mph100%29.68 "Hg2 mi
3:20 AM46 °FCool.20 mph93%29.71 "Hg2 mi
2:20 AM46 °FCool.20 mph93%29.74 "Hg1 mi
1:20 AM45 °FQuite cool.18 mph100%29.74 "Hg2 mi
12:20 AM45 °FQuite cool.20 mph93%29.77 "Hg1 mi
11:20 PM
Dec 21
45 °FQuite cool.21 mph93%29.80 "Hg2 mi
10:20 PM43 °FQuite cool.17 mph93%29.83 "Hg2 mi
9:20 PM43 °FQuite cool.17 mph93%29.89 "Hg4 mi
8:20 PM43 °FPassing clouds.17 mph93%29.92 "Hg5 mi
7:20 PM43 °FPassing clouds.17 mph87%29.92 "Hg4 mi
6:20 PM43 °FPartly cloudy.17 mph87%29.98 "HgN/A
Weather by CustomWeather, © 2014

See weather overviewHow to use our weather pages